Time,TemperatureF,DewpointF,PressureIn,WindDirection,WindDirectionDegrees,WindSpeedMPH,WindSpeedGustMPH,Humidity,HourlyPrecipIn,Conditions,Clouds,dailyrainin,SolarRadiationWatts/m^2,SoftwareType,DateUTC
2013-07-17 00:02:00,77.6,71.3,30.23,South,176,0.0,0.0,81,0.00,CLR,,0.00,0.0,WeatherDisplay:10.37,2013-07-17 05:02:00,
2013-07-17 00:07:00,77.6,71.3,30.24,South,176,0.0,0.0,81,0.00,CLR,,0.00,0.0,WeatherDisplay:10.37,2013-07-17 05:07:00,
2013-07-17 00:12:00,77.5,71.6,30.24,South,176,0.0,0.0,82,0.00,CLR,,0.00,0.0,WeatherDisplay:10.37,2013-07-17 05:12:00,
2013-07-17 00:18:00,77.4,71.5,30.24,South,176,0.0,0.0,82,0.00,CLR,,0.00,0.0,WeatherDisplay:10.37,2013-07-17 05:18:00,
2013-07-17 00:23:00,77.3,71.4,30.24,South,176,0.0,0.0,82,0.00,CLR,,0.00,0.0,WeatherDisplay:10.37,2013-07-17 05:23:00,
2013-07-17 00:28:00,77.3,71.4,30.24,South,176,0.0,0.0,82,0.00,CLR,,0.00,0.0,WeatherDisplay:10.37,2013-07-17 05:28:00,
2013-07-17 00:33:00,77.2,71.3,30.24,South,176,0.0,0.0,82,0.00,CLR,,0.00,0.0,WeatherDisplay:10.37,2013-07-17 05:33:00,
2013-07-17 00:39:00,77.1,71.2,30.24,South,176,0.0,0.0,82,0.00,CLR,,0.00,0.0,WeatherDisplay:10.37,2013-07-17 05:39:00,
2013-07-17 00:44:00,77.2,71.3,30.24,South,176,0.0,0.0,82,0.00,CLR,,0.00,0.0,WeatherDisplay:10.37,2013-07-17 05:44:00,
2013-07-17 00:49:00,77.3,71.4,30.24,South,176,0.0,0.0,82,0.00,CLR,,0.00,0.0,WeatherDisplay:10.37,2013-07-17 05:49:00,
2013-07-17 00:54:00,77.0,71.4,30.24,South,176,0.0,0.0,83,0.00,CLR,,0.00,0.0,WeatherDisplay:10.37,2013-07-17 05:54:00,
2013-07-17 01:00:00,76.9,71.3,30.24,South,176,0.0,0.0,83,0.00,CLR,,0.00,0.0,WeatherDisplay:10.37,2013-07-17 06:00:00,
2013-07-17 01:05:00,76.8,71.2,30.24,South,176,0.0,0.0,83,0.00,CLR,,0.00,0.0,WeatherDisplay:10.37,2013-07-17 06:05:00,
2013-07-17 01:10:00,76.6,71.4,30.24,South,176,0.0,0.0,84,0.00,CLR,,0.00,0.0,WeatherDisplay:10.37,2013-07-17 06:10:00,
2013-07-17 01:15:00,76.4,71.2,30.24,South,176,0.0,0.0,84,0.00,CLR,,0.00,0.0,WeatherDisplay:10.37,2013-07-17 06:15:00,
2013-07-17 01:21:00,76.3,71.1,30.24,South,176,0.0,0.0,84,0.00,CLR,,0.00,0.0,WeatherDisplay:10.37,2013-07-17 06:21:00,
2013-07-17 01:26:00,76.2,71.0,30.24,South,176,0.0,0.0,84,0.00,CLR,,0.00,0.0,WeatherDisplay:10.37,2013-07-17 06:26:00,
2013-07-17 01:31:00,76.0,71.2,30.24,South,176,0.0,0.0,85,0.00,CLR,,0.00,0.0,WeatherDisplay:10.37,2013-07-17 06:31:00,
2013-07-17 01:36:00,76.1,70.9,30.24,South,176,0.0,0.0,84,0.00,CLR,,0.00,0.0,WeatherDisplay:10.37,2013-07-17 06:36:00,
2013-07-17 01:42:00,76.0,71.2,30.24,South,176,0.0,0.0,85,0.00,CLR,CLR,0.00,0.0,WeatherDisplay:10.37,2013-07-17 06:42:00,
2013-07-17 01:47:00,75.8,71.0,30.24,South,176,0.0,0.0,85,0.00,CLR,,0.00,0.0,WeatherDisplay:10.37,2013-07-17 06:47:00,
2013-07-17 01:52:00,75.9,71.1,30.24,South,176,0.0,0.0,85,0.00,CLR,CLR,0.00,0.0,WeatherDisplay:10.37,2013-07-17 06:52:00,
2013-07-17 01:57:00,75.6,71.1,30.24,South,176,0.0,0.0,86,0.00,CLR,CLR,0.00,0.0,WeatherDisplay:10.37,2013-07-17 06:57:00,
2013-07-17 02:02:00,75.6,71.1,30.24,South,176,0.0,0.0,86,0.00,CLR,,0.00,0.0,WeatherDisplay:10.37,2013-07-17 07:02:00,
2013-07-17 02:07:00,75.3,70.8,30.24,South,176,0.0,0.0,86,0.00,CLR,,0.00,0.0,WeatherDisplay:10.37,2013-07-17 07:07:00,
2013-07-17 02:12:00,75.3,70.8,30.24,South,176,0.0,0.0,86,0.00,CLR,,0.00,0.0,WeatherDisplay:10.37,2013-07-17 07:12:00,
2013-07-17 02:17:00,75.0,70.9,30.25,South,176,0.0,0.0,87,0.00,CLR,,0.00,0.0,WeatherDisplay:10.37,2013-07-17 07:17:00,
2013-07-17 02:23:00,75.0,70.9,30.25,South,176,0.0,0.0,87,0.00,CLR,,0.00,0.0,WeatherDisplay:10.37,2013-07-17 07:23:00,
2013-07-17 02:28:00,74.9,71.1,30.24,South,176,0.0,0.0,88,0.00,CLR,,0.00,0.0,WeatherDisplay:10.37,2013-07-17 07:28:00,
2013-07-17 02:33:00,74.9,71.1,30.24,South,176,0.0,0.0,88,0.00,CLR,,0.00,0.0,WeatherDisplay:10.37,2013-07-17 07:33:00,
2013-07-17 02:38:00,74.7,70.9,30.24,South,176,0.0,0.0,88,0.00,CLR,,0.00,0.0,WeatherDisplay:10.37,2013-07-17 07:38:00,
2013-07-17 02:44:00,74.7,70.9,30.24,South,176,0.0,0.0,88,0.00,CLR,,0.00,0.0,WeatherDisplay:10.37,2013-07-17 07:44:00,
2013-07-17 02:49:00,74.4,70.6,30.24,South,176,0.0,0.0,88,0.00,CLR,,0.00,0.0,WeatherDisplay:10.37,2013-07-17 07:49:00,
2013-07-17 02:54:00,74.4,70.9,30.24,South,176,0.0,0.0,89,0.00,CLR,,0.00,0.0,WeatherDisplay:10.37,2013-07-17 07:54:00,
2013-07-17 02:59:00,74.6,70.8,30.25,South,176,0.0,0.0,88,0.00,CLR,,0.00,0.0,WeatherDisplay:10.37,2013-07-17 07:59:00,
2013-07-17 03:05:00,74.8,71.0,30.24,South,176,0.0,0.0,88,0.00,CLR,,0.00,0.0,WeatherDisplay:10.37,2013-07-17 08:05:00,
2013-07-17 03:10:00,74.8,71.0,30.24,South,176,0.0,0.0,88,0.00,CLR,,0.00,0.0,WeatherDisplay:10.37,2013-07-17 08:10:00,
2013-07-17 03:15:00,74.9,70.8,30.24,South,176,0.0,0.0,87,0.00,CLR,,0.00,0.0,WeatherDisplay:10.37,2013-07-17 08:15:00,
2013-07-17 03:20:00,74.7,70.9,30.24,South,176,0.0,0.0,88,0.00,CLR,,0.00,0.0,WeatherDisplay:10.37,2013-07-17 08:20:00,
2013-07-17 03:26:00,74.3,70.5,30.24,South,176,0.0,0.0,88,0.00,CLR,,0.00,0.0,WeatherDisplay:10.37,2013-07-17 08:26:00,
2013-07-17 03:31:00,74.4,70.9,30.25,South,176,0.0,0.0,89,0.00,CLR,,0.00,0.0,WeatherDisplay:10.37,2013-07-17 08:31:00,
2013-07-17 03:36:00,74.4,70.6,30.25,South,176,0.0,0.0,88,0.00,CLR,,0.00,0.0,WeatherDisplay:10.37,2013-07-17 08:36:00,
2013-07-17 03:41:00,74.4,70.9,30.24,South,176,0.0,0.0,89,0.00,CLR,,0.00,0.0,WeatherDisplay:10.37,2013-07-17 08:41:00,
2013-07-17 03:47:00,74.1,70.6,30.25,South,176,0.0,0.0,89,0.00,CLR,,0.00,0.0,WeatherDisplay:10.37,2013-07-17 08:47:00,
2013-07-17 03:52:00,74.0,70.6,30.24,South,176,0.0,0.0,89,0.00,CLR,,0.00,0.0,WeatherDisplay:10.37,2013-07-17 08:52:00,
2013-07-17 03:57:00,73.8,70.4,30.25,South,176,0.0,0.0,89,0.00,CLR,,0.00,0.0,WeatherDisplay:10.37,2013-07-17 08:57:00,
2013-07-17 04:02:00,73.9,70.5,30.25,South,176,0.0,0.0,89,0.00,CLR,,0.00,0.0,WeatherDisplay:10.37,2013-07-17 09:02:00,
2013-07-17 04:08:00,74.0,70.2,30.25,South,176,0.0,0.0,88,0.00,CLR,,0.00,0.0,WeatherDisplay:10.37,2013-07-17 09:08:00,
2013-07-17 04:13:00,73.7,70.3,30.24,South,176,0.0,0.0,89,0.00,CLR,,0.00,0.0,WeatherDisplay:10.37,2013-07-17 09:13:00,
2013-07-17 04:18:00,73.5,70.1,30.24,South,176,0.0,0.0,89,0.00,CLR,,0.00,0.0,WeatherDisplay:10.37,2013-07-17 09:18:00,
2013-07-17 04:23:00,73.3,70.2,30.25,South,176,0.0,0.0,90,0.00,CLR,,0.00,0.0,WeatherDisplay:10.37,2013-07-17 09:23:00,
2013-07-17 04:29:00,73.5,70.1,30.25,South,176,0.0,0.0,89,0.00,CLR,,0.00,0.0,WeatherDisplay:10.37,2013-07-17 09:29:00,
2013-07-17 04:34:00,73.6,70.2,30.25,South,176,0.0,0.0,89,0.00,CLR,,0.00,0.0,WeatherDisplay:10.37,2013-07-17 09:34:00,
2013-07-17 04:39:00,73.5,70.1,30.25,South,176,0.0,0.0,89,0.00,CLR,,0.00,0.0,WeatherDisplay:10.37,2013-07-17 09:39:00,
2013-07-17 04:44:00,73.5,70.1,30.25,South,176,0.0,0.0,89,0.00,CLR,,0.00,0.0,WeatherDisplay:10.37,2013-07-17 09:44:00,
2013-07-17 04:50:00,73.2,69.8,30.25,South,176,0.0,0.0,89,0.00,CLR,,0.00,0.0,WeatherDisplay:10.37,2013-07-17 09:50:00,
2013-07-17 04:55:00,73.2,69.8,30.25,South,176,0.0,0.0,89,0.00,CLR,,0.00,0.0,WeatherDisplay:10.37,2013-07-17 09:55:00,
2013-07-17 05:00:00,73.0,69.9,30.25,South,176,0.0,0.0,90,0.00,CLR,,0.00,0.0,WeatherDisplay:10.37,2013-07-17 10:00:00,
2013-07-17 05:05:00,73.0,69.9,30.25,South,176,0.0,0.0,90,0.00,CLR,,0.00,0.0,WeatherDisplay:10.37,2013-07-17 10:05:00,
2013-07-17 05:11:00,72.8,69.7,30.25,South,176,0.0,0.0,90,0.00,CLR,,0.00,0.0,WeatherDisplay:10.37,2013-07-17 10:11:00,
2013-07-17 05:16:00,72.7,69.6,30.25,South,176,0.0,0.0,90,0.00,CLR,,0.00,0.0,WeatherDisplay:10.37,2013-07-17 10:16:00,
2013-07-17 05:21:00,72.9,69.8,30.25,South,176,0.0,0.0,90,0.00,CLR,,0.00,0.0,WeatherDisplay:10.37,2013-07-17 10:21:00,
2013-07-17 05:26:00,72.9,69.8,30.25,South,176,0.0,0.0,90,0.00,CLR,,0.00,0.0,WeatherDisplay:10.37,2013-07-17 10:26:00,
2013-07-17 05:32:00,72.7,69.6,30.25,South,176,0.0,0.0,90,0.00,CLR,,0.00,0.0,WeatherDisplay:10.37,2013-07-17 10:32:00,
2013-07-17 05:37:00,72.7,69.9,30.25,South,176,0.0,0.0,91,0.00,CLR,,0.00,0.0,WeatherDisplay:10.37,2013-07-17 10:37:00,
2013-07-17 05:42:00,73.0,69.9,30.25,South,176,0.0,0.0,90,0.00,CLR,,0.00,0.0,WeatherDisplay:10.37,2013-07-17 10:42:00,
2013-07-17 05:47:00,72.7,69.6,30.25,South,176,0.0,0.0,90,0.00,CLR,,0.00,0.0,WeatherDisplay:10.37,2013-07-17 10:47:00,
2013-07-17 05:53:00,72.5,69.7,30.25,South,176,0.0,0.0,91,0.00,CLR,,0.00,0.0,WeatherDisplay:10.37,2013-07-17 10:53:00,
2013-07-17 05:58:00,72.4,69.6,30.25,South,176,0.0,0.0,91,0.00,CLR,,0.00,0.0,WeatherDisplay:10.37,2013-07-17 10:58:00,
2013-07-17 06:03:00,72.5,69.7,30.25,South,176,0.0,0.0,91,0.00,CLR,,0.00,5.0,WeatherDisplay:10.37,2013-07-17 11:03:00,
2013-07-17 06:08:00,72.6,69.8,30.26,South,176,0.0,0.0,91,0.00,CLR,,0.00,7.0,WeatherDisplay:10.37,2013-07-17 11:08:00,
2013-07-17 06:14:00,72.7,69.9,30.26,South,176,0.0,0.0,91,0.00,CLR,,0.00,11.0,WeatherDisplay:10.37,2013-07-17 11:14:00,
2013-07-17 06:19:00,72.5,69.7,30.26,South,176,0.0,0.0,91,0.00,CLR,,0.00,14.0,WeatherDisplay:10.37,2013-07-17 11:19:00,
2013-07-17 06:24:00,72.5,69.7,30.26,South,176,0.0,0.0,91,0.00,CLR,,0.00,16.0,WeatherDisplay:10.37,2013-07-17 11:24:00,
2013-07-17 06:29:00,72.7,69.9,30.26,South,176,0.0,0.0,91,0.00,CLR,,0.00,19.0,WeatherDisplay:10.37,2013-07-17 11:29:00,
2013-07-17 06:35:00,72.7,69.9,30.26,South,176,0.0,0.0,91,0.00,CLR,,0.00,23.0,WeatherDisplay:10.37,2013-07-17 11:35:00,
2013-07-17 06:40:00,72.9,70.1,30.26,South,176,0.0,0.0,91,0.00,CLR,,0.00,25.0,WeatherDisplay:10.37,2013-07-17 11:40:00,
2013-07-17 06:45:00,73.0,70.2,30.26,South,176,0.0,0.0,91,0.00,CLR,,0.00,28.0,WeatherDisplay:10.37,2013-07-17 11:45:00,
2013-07-17 06:51:00,73.3,70.5,30.26,South,176,0.0,0.0,91,0.00,CLR,,0.00,32.0,WeatherDisplay:10.37,2013-07-17 11:51:00,
2013-07-17 06:56:00,73.6,70.5,30.26,South,176,0.0,0.0,90,0.00,CLR,,0.00,33.0,WeatherDisplay:10.37,2013-07-17 11:56:00,
2013-07-17 07:01:00,74.0,70.9,30.26,South,176,0.0,0.0,90,0.00,CLR,,0.00,35.0,WeatherDisplay:10.37,2013-07-17 12:01:00,
2013-07-17 07:06:00,74.3,70.8,30.26,South,176,0.0,0.0,89,0.00,CLR,,0.00,42.0,WeatherDisplay:10.37,2013-07-17 12:06:00,
2013-07-17 07:11:00,74.7,71.2,30.26,South,176,0.0,0.0,89,0.00,CLR,CLR,0.00,40.0,WeatherDisplay:10.37,2013-07-17 12:11:00,
2013-07-17 07:17:00,75.1,71.3,30.26,South,176,0.0,0.0,88,0.00,CLR,,0.00,42.0,WeatherDisplay:10.37,2013-07-17 12:17:00,
2013-07-17 07:22:00,75.6,71.5,30.26,South,176,0.0,0.0,87,0.00,CLR,,0.00,46.0,WeatherDisplay:10.37,2013-07-17 12:22:00,
2013-07-17 07:27:00,76.0,71.2,30.27,South,176,0.0,0.0,85,0.00,CLR,,0.00,47.0,WeatherDisplay:10.37,2013-07-17 12:27:00,
2013-07-17 07:33:00,76.4,71.6,30.27,South,176,0.0,0.0,85,0.00,CLR,,0.00,49.0,WeatherDisplay:10.37,2013-07-17 12:33:00,
2013-07-17 07:38:00,76.7,71.5,30.27,South,176,0.0,0.0,84,0.00,CLR,,0.00,51.0,WeatherDisplay:10.37,2013-07-17 12:38:00,
2013-07-17 07:43:00,76.9,71.7,30.27,South,176,0.0,0.0,84,0.00,CLR,,0.00,53.0,WeatherDisplay:10.37,2013-07-17 12:43:00,
2013-07-17 07:48:00,77.2,71.6,30.27,SW,218,0.0,0.0,83,0.00,CLR,,0.00,54.0,WeatherDisplay:10.37,2013-07-17 12:48:00,
2013-07-17 07:54:00,77.6,71.7,30.27,SW,218,0.0,0.0,82,0.00,CLR,,0.00,54.0,WeatherDisplay:10.37,2013-07-17 12:54:00,
2013-07-17 07:59:00,77.9,72.0,30.27,SW,218,0.0,0.0,82,0.00,CLR,,0.00,56.0,WeatherDisplay:10.37,2013-07-17 12:59:00,
2013-07-17 08:04:00,78.3,72.3,30.27,SW,218,0.0,0.0,82,0.00,FEW,,0.00,58.0,WeatherDisplay:10.37,2013-07-17 13:04:00,
2013-07-17 08:09:00,78.7,72.0,30.27,SSW,201,0.0,0.0,80,0.00,FEW,,0.00,58.0,WeatherDisplay:10.37,2013-07-17 13:09:00,
2013-07-17 08:15:00,79.0,71.9,30.27,SSW,201,0.0,0.0,79,0.00,FEW,,0.00,60.0,WeatherDisplay:10.37,2013-07-17 13:15:00,
2013-07-17 08:20:00,79.4,71.9,30.27,SSW,201,0.0,0.0,78,0.00,FEW,,0.00,63.0,WeatherDisplay:10.37,2013-07-17 13:20:00,
2013-07-17 08:25:00,79.8,72.3,30.28,SE,141,0.0,0.0,78,0.00,FEW,,0.00,67.0,WeatherDisplay:10.37,2013-07-17 13:25:00,
2013-07-17 08:30:00,80.0,72.5,30.28,SE,141,0.0,0.0,78,0.00,FEW,,0.00,83.0,WeatherDisplay:10.37,2013-07-17 13:30:00,
2013-07-17 08:36:00,80.1,72.6,30.28,SE,141,0.0,0.0,78,0.00,FEW,,0.00,116.0,WeatherDisplay:10.37,2013-07-17 13:36:00,
2013-07-17 08:41:00,80.5,72.6,30.28,SE,141,0.0,0.0,77,0.00,FEW,,0.00,69.0,WeatherDisplay:10.37,2013-07-17 13:41:00,
2013-07-17 08:46:00,80.7,72.4,30.27,SE,141,0.0,0.0,76,0.00,FEW,,0.00,70.0,WeatherDisplay:10.37,2013-07-17 13:46:00,
2013-07-17 08:51:00,81.2,72.9,30.28,South,184,0.2,1.2,76,0.00,FEW,,0.00,70.0,WeatherDisplay:10.37,2013-07-17 13:51:00,
2013-07-17 08:57:00,81.4,72.7,30.28,South,177,0.0,2.0,75,0.00,FEW,FEW,0.00,72.0,WeatherDisplay:10.37,2013-07-17 13:57:00,
2013-07-17 09:01:00,81.7,72.6,30.28,South,184,0.0,1.2,74,0.00,FEW,,0.00,72.0,WeatherDisplay:10.37,2013-07-17 14:01:00,
2013-07-17 09:07:00,81.9,72.4,30.28,South,176,0.0,1.0,73,0.00,FEW,FEW,0.00,74.0,WeatherDisplay:10.37,2013-07-17 14:07:00,
2013-07-17 09:11:00,82.3,72.7,30.28,SSE,156,0.0,0.0,73,0.00,FEW,FEW,0.00,74.0,WeatherDisplay:10.37,2013-07-17 14:11:00,
2013-07-17 09:17:00,82.7,71.9,30.28,SSE,156,0.8,3.5,70,0.00,FEW,,0.00,76.0,WeatherDisplay:10.37,2013-07-17 14:17:00,
2013-07-17 09:22:00,83.1,72.7,30.28,SSE,156,0.0,0.0,71,0.00,FEW,,0.00,77.0,WeatherDisplay:10.37,2013-07-17 14:22:00,
2013-07-17 09:27:00,83.4,72.6,30.28,SSE,156,0.0,0.0,70,0.00,FEW,,0.00,81.0,WeatherDisplay:10.37,2013-07-17 14:27:00,
2013-07-17 09:32:00,83.4,72.2,30.27,SSE,156,0.0,0.0,69,0.00,FEW,,0.00,83.0,WeatherDisplay:10.37,2013-07-17 14:32:00,
2013-07-17 09:38:00,83.6,72.8,30.27,SSE,156,0.0,0.0,70,0.00,FEW,,0.00,83.0,WeatherDisplay:10.37,2013-07-17 14:38:00,
2013-07-17 09:43:00,84.4,72.2,30.27,SSE,156,0.0,0.0,67,0.00,FEW,,0.00,83.0,WeatherDisplay:10.37,2013-07-17 14:43:00,
2013-07-17 09:48:00,84.5,72.8,30.27,SSE,156,0.0,0.0,68,0.00,FEW,,0.00,88.0,WeatherDisplay:10.37,2013-07-17 14:48:00,
2013-07-17 09:53:00,84.6,72.4,30.27,SSE,156,0.0,0.0,67,0.00,FEW,,0.00,84.0,WeatherDisplay:10.37,2013-07-17 14:53:00,
2013-07-17 09:59:00,84.7,72.5,30.27,SSE,156,0.0,0.0,67,0.00,FEW,,0.00,86.0,WeatherDisplay:10.37,2013-07-17 14:59:00,
2013-07-17 10:04:00,85.5,73.3,30.27,NNW,327,0.0,0.0,67,0.00,FEW,,0.00,88.0,WeatherDisplay:10.37,2013-07-17 15:04:00,
2013-07-17 10:09:00,85.5,71.9,30.27,NNW,327,0.0,0.0,64,0.00,FEW,,0.00,88.0,WeatherDisplay:10.37,2013-07-17 15:09:00,
2013-07-17 10:14:00,85.6,72.5,30.27,NNW,327,0.0,0.0,65,0.00,FEW,,0.00,90.0,WeatherDisplay:10.37,2013-07-17 15:14:00,
2013-07-17 10:20:00,85.8,72.7,30.27,NNW,327,0.0,0.0,65,0.00,FEW,,0.00,387.0,WeatherDisplay:10.37,2013-07-17 15:20:00,
2013-07-17 10:25:00,86.7,71.6,30.27,NNW,327,0.0,1.2,61,0.00,FEW,,0.00,107.0,WeatherDisplay:10.37,2013-07-17 15:25:00,
2013-07-17 10:30:00,87.1,73.0,30.27,NNW,327,0.0,1.2,63,0.00,FEW,,0.00,97.0,WeatherDisplay:10.37,2013-07-17 15:30:00,
2013-07-17 10:35:00,86.6,73.0,30.27,NNW,327,0.0,0.0,64,0.00,FEW,,0.00,123.0,WeatherDisplay:10.37,2013-07-17 15:35:00,
2013-07-17 10:41:00,87.0,72.4,30.27,South,184,0.0,0.0,62,0.00,FEW,,0.00,724.0,WeatherDisplay:10.37,2013-07-17 15:41:00,
2013-07-17 10:46:00,87.3,71.7,30.27,ENE,63,0.0,1.2,60,0.00,FEW,,0.00,745.0,WeatherDisplay:10.37,2013-07-17 15:46:00,
2013-07-17 10:51:00,88.2,73.5,30.27,ENE,63,0.0,1.2,62,0.00,FEW,,0.00,763.0,WeatherDisplay:10.37,2013-07-17 15:51:00,
2013-07-17 10:56:00,88.0,71.9,30.27,ENE,63,0.0,0.0,59,0.00,FEW,,0.00,772.0,WeatherDisplay:10.37,2013-07-17 15:56:00,
2013-07-17 11:02:00,88.4,73.7,30.27,ENE,64,0.0,0.0,62,0.00,FEW,,0.00,780.0,WeatherDisplay:10.37,2013-07-17 16:02:00,
2013-07-17 11:07:00,89.0,73.3,30.27,WSW,256,0.1,1.2,60,0.00,FEW,,0.00,796.0,WeatherDisplay:10.37,2013-07-17 16:07:00,
2013-07-17 11:12:00,88.6,71.9,30.27,NNW,346,0.1,1.0,58,0.00,FEW,,0.00,803.0,WeatherDisplay:10.37,2013-07-17 16:12:00,
2013-07-17 11:17:00,88.7,72.5,30.27,NNW,346,0.0,0.0,59,0.00,FEW,,0.00,814.0,WeatherDisplay:10.37,2013-07-17 16:17:00,
2013-07-17 11:23:00,88.7,72.5,30.27,NNW,346,0.0,0.0,59,0.00,FEW,,0.00,826.0,WeatherDisplay:10.37,2013-07-17 16:23:00,
2013-07-17 11:28:00,89.9,72.1,30.27,ENE,78,0.1,1.0,56,0.00,FEW,,0.00,838.0,WeatherDisplay:10.37,2013-07-17 16:28:00,
2013-07-17 11:33:00,89.7,68.6,30.27,SSE,151,2.9,5.8,50,0.00,FEW,,0.00,854.0,WeatherDisplay:10.37,2013-07-17 16:33:00,
2013-07-17 11:38:00,89.7,71.4,30.27,NNW,338,0.0,0.0,55,0.00,FEW,,0.00,856.0,WeatherDisplay:10.37,2013-07-17 16:38:00,
2013-07-17 11:44:00,89.9,69.9,30.27,SSE,165,0.0,0.0,52,0.00,FEW,,0.00,868.0,WeatherDisplay:10.37,2013-07-17 16:44:00,
2013-07-17 11:49:00,90.6,71.1,30.27,SE,141,0.1,1.2,53,0.00,FEW,,0.00,870.0,WeatherDisplay:10.37,2013-07-17 16:49:00,
2013-07-17 11:54:00,91.0,70.9,30.27,ESE,119,0.1,1.2,52,0.00,FEW,,0.00,895.0,WeatherDisplay:10.37,2013-07-17 16:54:00,
2013-07-17 11:59:00,91.0,69.8,30.26,South,190,0.4,0.0,50,0.00,FEW,,0.00,900.0,WeatherDisplay:10.37,2013-07-17 16:59:00,
2013-07-17 12:05:00,90.8,69.6,30.26,East,101,0.1,3.0,50,0.00,FEW,,0.00,919.0,WeatherDisplay:10.37,2013-07-17 17:05:00,
2013-07-17 12:10:00,91.4,68.3,30.26,SSE,157,0.1,1.2,47,0.00,FEW,,0.00,926.0,WeatherDisplay:10.37,2013-07-17 17:10:00,
2013-07-17 12:15:00,92.0,70.1,30.26,SSW,192,0.0,0.0,49,0.00,FEW,,0.00,940.0,WeatherDisplay:10.37,2013-07-17 17:15:00,
2013-07-17 12:20:00,91.5,69.0,30.26,ENE,76,0.0,1.2,48,0.00,FEW,,0.00,937.0,WeatherDisplay:10.37,2013-07-17 17:20:00,
2013-07-17 12:26:00,91.4,68.3,30.26,ENE,78,0.1,1.2,47,0.00,FEW,,0.00,947.0,WeatherDisplay:10.37,2013-07-17 17:26:00,
2013-07-17 12:31:00,91.3,68.2,30.25,ESE,122,0.5,3.5,47,0.00,FEW,,0.00,956.0,WeatherDisplay:10.37,2013-07-17 17:31:00,
2013-07-17 12:36:00,91.5,69.0,30.26,ENE,62,0.2,1.0,48,0.00,FEW,,0.00,969.0,WeatherDisplay:10.37,2013-07-17 17:36:00,
2013-07-17 12:41:00,91.0,67.3,30.25,NNE,33,0.0,1.2,46,0.00,FEW,,0.00,970.0,WeatherDisplay:10.37,2013-07-17 17:41:00,
2013-07-17 12:47:00,91.9,69.4,30.25,NNE,33,0.0,0.0,48,0.00,FEW,,0.00,974.0,WeatherDisplay:10.37,2013-07-17 17:47:00,
2013-07-17 12:52:00,92.0,71.3,30.25,ENE,73,0.0,0.0,51,0.00,FEW,,0.00,972.0,WeatherDisplay:10.37,2013-07-17 17:52:00,
2013-07-17 12:57:00,92.0,68.9,30.25,SSE,148,0.3,2.0,47,0.00,FEW,,0.00,962.0,WeatherDisplay:10.37,2013-07-17 17:57:00,
2013-07-17 13:02:00,92.3,71.0,30.25,SSW,199,0.0,0.0,50,0.00,FEW,,0.00,958.0,WeatherDisplay:10.37,2013-07-17 18:02:00,
2013-07-17 13:08:00,92.0,68.9,30.25,SE,130,0.1,1.2,47,0.00,FEW,,0.00,972.0,WeatherDisplay:10.37,2013-07-17 18:08:00,
2013-07-17 13:13:00,92.8,70.2,30.25,SE,138,0.0,0.0,48,0.00,FEW,,0.00,121.0,WeatherDisplay:10.37,2013-07-17 18:13:00,
2013-07-17 13:18:00,89.9,68.8,30.25,SE,138,0.0,0.0,50,0.00,FEW,,0.00,176.0,WeatherDisplay:10.37,2013-07-17 18:18:00,
2013-07-17 13:23:00,90.6,70.0,30.24,SE,126,0.0,1.2,51,0.00,FEW,,0.00,1004.0,WeatherDisplay:10.37,2013-07-17 18:23:00,
2013-07-17 13:29:00,92.3,71.0,30.24,South,175,0.0,1.2,50,0.00,FEW,,0.00,1011.0,WeatherDisplay:10.37,2013-07-17 18:29:00,
2013-07-17 13:34:00,92.3,68.5,30.24,SSE,155,0.0,0.0,46,0.00,FEW,,0.00,248.0,WeatherDisplay:10.37,2013-07-17 18:34:00,
2013-07-17 13:39:00,92.3,68.5,30.24,SE,138,0.2,3.5,46,0.00,FEW,,0.00,1011.0,WeatherDisplay:10.37,2013-07-17 18:39:00,
2013-07-17 13:44:00,91.3,69.5,30.24,SSE,154,0.5,1.2,49,0.00,FEW,,0.00,181.0,WeatherDisplay:10.37,2013-07-17 18:44:00,
2013-07-17 13:50:00,91.1,68.7,30.24,WNW,290,0.1,1.2,48,0.00,FEW,,0.00,1000.0,WeatherDisplay:10.37,2013-07-17 18:50:00,
2013-07-17 13:55:00,93.3,71.3,30.23,NE,38,0.7,3.0,49,0.00,FEW,,0.00,974.0,WeatherDisplay:10.37,2013-07-17 18:55:00,
2013-07-17 14:00:00,92.8,69.0,30.24,SSW,192,1.5,3.0,46,0.00,FEW,,0.00,991.0,WeatherDisplay:10.37,2013-07-17 19:00:00,
2013-07-17 14:05:00,92.9,70.9,30.23,ENE,75,0.1,2.3,49,0.00,FEW,,0.00,990.0,WeatherDisplay:10.37,2013-07-17 19:05:00,
2013-07-17 14:11:00,93.7,70.4,30.23,WSW,240,0.1,2.3,47,0.00,FEW,,0.00,976.0,WeatherDisplay:10.37,2013-07-17 19:11:00,
2013-07-17 14:16:00,93.5,69.0,30.23,SSE,163,0.0,0.0,45,0.00,FEW,,0.00,977.0,WeatherDisplay:10.37,2013-07-17 19:16:00,
2013-07-17 14:21:00,93.4,68.2,30.22,SSE,163,0.0,0.0,44,0.00,FEW,,0.00,977.0,WeatherDisplay:10.37,2013-07-17 19:21:00,
2013-07-17 14:26:00,92.2,68.4,30.22,SSE,163,0.0,0.0,46,0.00,FEW,,0.00,199.0,WeatherDisplay:10.37,2013-07-17 19:26:00,
2013-07-17 14:32:00,92.8,70.8,30.22,ENE,67,0.0,1.2,49,0.00,FEW,,0.00,983.0,WeatherDisplay:10.37,2013-07-17 19:32:00,
2013-07-17 14:37:00,93.7,69.8,30.22,SE,126,0.0,3.0,46,0.00,FEW,,0.00,940.0,WeatherDisplay:10.37,2013-07-17 19:37:00,
2013-07-17 14:42:00,94.1,68.2,30.21,SE,140,0.7,3.5,43,0.00,FEW,,0.00,698.0,WeatherDisplay:10.37,2013-07-17 19:42:00,
2013-07-17 14:48:00,93.6,68.4,30.22,SE,136,0.1,1.2,44,0.00,FEW,,0.00,867.0,WeatherDisplay:10.37,2013-07-17 19:48:00,
2013-07-17 14:53:00,93.2,68.0,30.21,NNE,31,0.1,1.2,44,0.00,FEW,,0.00,962.0,WeatherDisplay:10.37,2013-07-17 19:53:00,
2013-07-17 14:58:00,93.2,69.3,30.21,SSW,206,1.4,10.4,46,0.00,FEW,,0.00,960.0,WeatherDisplay:10.37,2013-07-17 19:58:00,
2013-07-17 15:03:00,93.6,69.1,30.21,South,171,0.2,6.0,45,0.00,FEW,,0.00,902.0,WeatherDisplay:10.37,2013-07-17 20:03:00,
2013-07-17 15:09:00,93.7,67.8,30.20,East,96,0.0,1.2,43,0.00,FEW,,0.00,884.0,WeatherDisplay:10.37,2013-07-17 20:09:00,
2013-07-17 15:14:00,94.1,71.4,30.20,West,277,0.0,0.0,48,0.00,FEW,,0.00,856.0,WeatherDisplay:10.37,2013-07-17 20:14:00,
2013-07-17 15:19:00,93.5,68.3,30.20,SE,145,1.2,4.6,44,0.00,FEW,,0.00,853.0,WeatherDisplay:10.37,2013-07-17 20:19:00,
2013-07-17 15:24:00,94.0,68.8,30.20,SSE,153,1.5,3.5,44,0.00,FEW,,0.00,840.0,WeatherDisplay:10.37,2013-07-17 20:24:00,
2013-07-17 15:30:00,94.3,68.4,30.20,West,275,0.0,2.3,43,0.00,FEW,,0.00,826.0,WeatherDisplay:10.37,2013-07-17 20:30:00,
2013-07-17 15:35:00,93.6,67.7,30.20,North,360,0.0,0.0,43,0.00,FEW,,0.00,835.0,WeatherDisplay:10.37,2013-07-17 20:35:00,
2013-07-17 15:40:00,93.2,68.0,30.20,East,80,0.1,1.2,44,0.00,FEW,,0.00,860.0,WeatherDisplay:10.37,2013-07-17 20:40:00,
2013-07-17 15:45:00,93.4,69.5,30.20,East,100,0.2,1.2,46,0.00,FEW,,0.00,195.0,WeatherDisplay:10.37,2013-07-17 20:45:00,
2013-07-17 15:51:00,92.1,69.6,30.20,East,100,0.0,0.0,48,0.00,FEW,,0.00,181.0,WeatherDisplay:10.37,2013-07-17 20:51:00,
2013-07-17 15:56:00,92.1,69.0,30.19,SSE,150,0.0,0.0,47,0.00,FEW,,0.00,186.0,WeatherDisplay:10.37,2013-07-17 20:56:00,
2013-07-17 16:01:00,91.9,69.4,30.19,SSE,150,0.0,0.0,48,0.00,SCT,,0.00,160.0,WeatherDisplay:10.37,2013-07-17 21:01:00,
2013-07-17 16:06:00,90.8,70.2,30.19,South,190,0.0,0.0,51,0.00,SCT,,0.00,197.0,WeatherDisplay:10.37,2013-07-17 21:06:00,
2013-07-17 16:11:00,91.1,70.4,30.19,South,190,0.0,0.0,51,0.00,SCT,SCT,0.00,148.0,WeatherDisplay:10.37,2013-07-17 21:11:00,
2013-07-17 16:17:00,90.2,70.8,30.19,South,189,0.0,0.0,53,0.00,SCT,,0.00,181.0,WeatherDisplay:10.37,2013-07-17 21:17:00,
2013-07-17 16:22:00,89.6,69.6,30.18,South,189,0.0,0.0,52,0.00,SCT,,0.00,163.0,WeatherDisplay:10.37,2013-07-17 21:22:00,
2013-07-17 16:27:00,89.9,69.9,30.18,South,189,0.0,0.0,52,0.00,SCT,,0.00,729.0,WeatherDisplay:10.37,2013-07-17 21:27:00,
2013-07-17 16:33:00,91.5,69.6,30.18,SSE,157,0.1,1.2,49,0.00,SCT,,0.00,703.0,WeatherDisplay:10.37,2013-07-17 21:33:00,
2013-07-17 16:38:00,92.0,68.9,30.18,ESE,107,0.8,2.3,47,0.00,SCT,,0.00,214.0,WeatherDisplay:10.37,2013-07-17 21:38:00,
2013-07-17 16:43:00,91.7,70.4,30.18,South,188,0.0,0.0,50,0.00,SCT,,0.00,657.0,WeatherDisplay:10.37,2013-07-17 21:43:00,
2013-07-17 16:48:00,92.4,70.5,30.18,North,355,0.4,1.2,49,0.00,SCT,,0.00,612.0,WeatherDisplay:10.37,2013-07-17 21:48:00,
2013-07-17 16:54:00,92.1,69.0,30.18,NW,318,0.0,0.0,47,0.00,SCT,,0.00,633.0,WeatherDisplay:10.37,2013-07-17 21:54:00,
2013-07-17 16:59:00,92.1,70.2,30.18,NW,318,0.3,1.2,49,0.00,SCT,,0.00,629.0,WeatherDisplay:10.37,2013-07-17 21:59:00,
2013-07-17 17:04:00,91.8,69.3,30.18,South,186,0.9,8.1,48,0.00,BKN,,0.00,153.0,WeatherDisplay:10.37,2013-07-17 22:04:00,
2013-07-17 17:09:00,91.3,69.5,30.18,East,87,0.0,1.2,49,0.00,BKN,,0.00,216.0,WeatherDisplay:10.37,2013-07-17 22:09:00,
2013-07-17 17:15:00,92.1,70.2,30.17,SSE,164,0.4,2.3,49,0.00,BKN,,0.00,197.0,WeatherDisplay:10.37,2013-07-17 22:15:00,
2013-07-17 17:20:00,92.1,69.6,30.17,SE,142,0.0,2.3,48,0.00,BKN,,0.00,178.0,WeatherDisplay:10.37,2013-07-17 22:20:00,
2013-07-17 17:25:00,92.3,71.6,30.17,South,169,0.0,0.0,51,0.00,BKN,,0.00,146.0,WeatherDisplay:10.37,2013-07-17 22:25:00,
2013-07-17 17:30:00,91.9,70.0,30.17,NNE,22,0.0,0.0,49,0.00,BKN,,0.00,153.0,WeatherDisplay:10.37,2013-07-17 22:30:00,
2013-07-17 17:36:00,91.2,69.4,30.17,SE,144,0.9,4.6,49,0.00,BKN,,0.00,165.0,WeatherDisplay:10.37,2013-07-17 22:36:00,
2013-07-17 17:41:00,91.0,70.9,30.17,WNW,294,0.5,4.0,52,0.00,BKN,,0.00,190.0,WeatherDisplay:10.37,2013-07-17 22:41:00,
2013-07-17 17:46:00,90.8,71.3,30.17,SSE,150,0.7,2.0,53,0.00,BKN,,0.00,116.0,WeatherDisplay:10.37,2013-07-17 22:46:00,
2013-07-17 17:51:00,90.0,71.1,30.18,West,275,0.0,0.0,54,0.00,BKN,,0.00,91.0,WeatherDisplay:10.37,2013-07-17 22:51:00,
2013-07-17 17:57:00,89.3,71.0,30.17,South,188,0.0,2.0,55,0.00,BKN,BKN,0.00,81.0,WeatherDisplay:10.37,2013-07-17 22:57:00,
2013-07-17 18:02:00,88.3,70.1,30.17,SSE,159,0.1,1.2,55,0.00,BKN,,0.00,83.0,WeatherDisplay:10.37,2013-07-17 23:02:00,
2013-07-17 18:07:00,87.6,70.0,30.17,SSE,161,0.5,2.3,56,0.00,BKN,,0.00,88.0,WeatherDisplay:10.37,2013-07-17 23:07:00,
2013-07-17 18:12:00,88.1,70.9,30.17,SSE,163,0.0,0.0,57,0.00,BKN,,0.00,109.0,WeatherDisplay:10.37,2013-07-17 23:12:00,
2013-07-17 18:17:00,88.5,71.8,30.17,SSE,163,0.0,0.0,58,0.00,BKN,,0.00,97.0,WeatherDisplay:10.37,2013-07-17 23:17:00,
2013-07-17 18:23:00,88.4,70.7,30.17,SSE,149,0.0,0.0,56,0.00,BKN,,0.00,67.0,WeatherDisplay:10.37,2013-07-17 23:23:00,
2013-07-17 18:28:00,87.5,70.4,30.17,South,187,0.1,4.6,57,0.00,BKN,,0.00,63.0,WeatherDisplay:10.37,2013-07-17 23:28:00,
2013-07-17 18:33:00,86.7,71.2,30.17,SSE,147,0.0,0.0,60,0.00,BKN,,0.00,62.0,WeatherDisplay:10.37,2013-07-17 23:33:00,
2013-07-17 18:38:00,86.0,70.5,30.17,SSE,147,0.0,0.0,60,0.00,BKN,,0.00,49.0,WeatherDisplay:10.37,2013-07-17 23:38:00,
2013-07-17 18:44:00,85.9,70.4,30.17,SSE,163,0.9,3.5,60,0.00,BKN,,0.00,46.0,WeatherDisplay:10.37,2013-07-17 23:44:00,
2013-07-17 18:49:00,85.3,70.8,30.16,SSE,163,0.0,0.0,62,0.00,BKN,,0.00,46.0,WeatherDisplay:10.37,2013-07-17 23:49:00,
2013-07-17 18:54:00,85.2,69.7,30.16,SSE,163,0.0,0.0,60,0.00,BKN,,0.00,49.0,WeatherDisplay:10.37,2013-07-17 23:54:00,
2013-07-17 18:59:00,84.8,70.8,30.16,SSE,163,0.0,0.0,63,0.00,BKN,,0.00,54.0,WeatherDisplay:10.37,2013-07-17 23:59:00,
2013-07-17 19:05:00,85.0,71.5,30.16,SSE,163,0.0,0.0,64,0.00,SCT,,0.00,60.0,WeatherDisplay:10.37,2013-07-18 00:05:00,
2013-07-17 19:10:00,85.1,71.1,30.16,SSE,167,0.0,0.0,63,0.00,SCT,,0.00,65.0,WeatherDisplay:10.37,2013-07-18 00:10:00,
2013-07-17 19:15:00,85.3,71.3,30.16,SSE,167,0.0,0.0,63,0.00,SCT,,0.00,70.0,WeatherDisplay:10.37,2013-07-18 00:15:00,
2013-07-17 19:20:00,85.4,70.9,30.15,SSE,167,0.0,0.0,62,0.00,SCT,,0.00,79.0,WeatherDisplay:10.37,2013-07-18 00:20:00,
2013-07-17 19:26:00,86.0,70.5,30.16,SSE,167,0.0,0.0,60,0.00,SCT,,0.00,84.0,WeatherDisplay:10.37,2013-07-18 00:26:00,
2013-07-17 19:31:00,86.0,71.0,30.16,SSE,167,0.0,0.0,61,0.00,SCT,,0.00,90.0,WeatherDisplay:10.37,2013-07-18 00:31:00,
2013-07-17 19:36:00,86.4,70.4,30.16,SSE,167,0.0,0.0,59,0.00,SCT,,0.00,93.0,WeatherDisplay:10.37,2013-07-18 00:36:00,
2013-07-17 19:41:00,86.5,70.5,30.16,South,180,0.0,0.0,59,0.00,SCT,,0.00,86.0,WeatherDisplay:10.37,2013-07-18 00:41:00,
2013-07-17 19:47:00,86.2,70.7,30.16,South,187,0.0,0.0,60,0.00,SCT,,0.00,77.0,WeatherDisplay:10.37,2013-07-18 00:47:00,
2013-07-17 19:52:00,86.1,70.6,30.16,South,187,0.0,0.0,60,0.00,SCT,,0.00,65.0,WeatherDisplay:10.37,2013-07-18 00:52:00,
2013-07-17 19:57:00,85.7,71.2,30.16,South,187,0.0,0.0,62,0.00,SCT,,0.00,54.0,WeatherDisplay:10.37,2013-07-18 00:57:00,
2013-07-17 20:02:00,85.3,70.8,30.16,South,191,0.0,0.0,62,0.00,SCT,,0.00,47.0,WeatherDisplay:10.37,2013-07-18 01:02:00,
2013-07-17 20:08:00,85.1,71.1,30.15,South,186,0.0,1.2,63,0.00,SCT,,0.00,40.0,WeatherDisplay:10.37,2013-07-18 01:08:00,
2013-07-17 20:13:00,84.6,71.1,30.15,South,187,0.0,0.0,64,0.00,SCT,,0.00,35.0,WeatherDisplay:10.37,2013-07-18 01:13:00,
2013-07-17 20:18:00,84.4,71.3,30.15,South,187,0.0,0.0,65,0.00,SCT,,0.00,28.0,WeatherDisplay:10.37,2013-07-18 01:18:00,
2013-07-17 20:23:00,84.0,71.0,30.15,South,187,0.0,0.0,65,0.00,SCT,,0.00,21.0,WeatherDisplay:10.37,2013-07-18 01:23:00,
2013-07-17 20:29:00,84.0,70.5,30.15,South,187,0.0,0.0,64,0.00,SCT,,0.00,18.0,WeatherDisplay:10.37,2013-07-18 01:29:00,
2013-07-17 20:34:00,84.2,70.2,30.15,South,187,0.0,0.0,63,0.00,SCT,,0.00,14.0,WeatherDisplay:10.37,2013-07-18 01:34:00,
2013-07-17 20:39:00,84.0,70.5,30.16,SSE,160,0.0,0.0,64,0.00,SCT,,0.00,11.0,WeatherDisplay:10.37,2013-07-18 01:39:00,
2013-07-17 20:44:00,83.7,70.2,30.15,SSE,163,0.0,0.0,64,0.00,SCT,,0.00,9.0,WeatherDisplay:10.37,2013-07-18 01:44:00,
2013-07-17 20:50:00,83.4,69.9,30.15,SSE,163,0.0,0.0,64,0.00,SCT,,0.00,7.0,WeatherDisplay:10.37,2013-07-18 01:50:00,
2013-07-17 20:55:00,83.0,69.6,30.16,SSE,163,0.0,0.0,64,0.00,SCT,,0.00,0.0,WeatherDisplay:10.37,2013-07-18 01:55:00,
2013-07-17 21:00:00,82.8,69.8,30.15,SSE,163,0.0,0.0,65,0.00,SCT,,0.00,0.0,WeatherDisplay:10.37,2013-07-18 02:00:00,
2013-07-17 21:05:00,82.7,69.7,30.15,SSE,163,0.0,0.0,65,0.00,FEW,,0.00,0.0,WeatherDisplay:10.37,2013-07-18 02:05:00,
2013-07-17 21:11:00,82.4,69.9,30.15,SSE,163,0.0,0.0,66,0.00,FEW,,0.00,0.0,WeatherDisplay:10.37,2013-07-18 02:11:00,
2013-07-17 21:16:00,82.0,70.0,30.16,SSE,163,0.0,0.0,67,0.00,FEW,,0.00,0.0,WeatherDisplay:10.37,2013-07-18 02:16:00,
2013-07-17 21:22:00,81.9,70.3,30.16,SSE,163,0.0,0.0,68,0.00,FEW,FEW,0.00,0.0,WeatherDisplay:10.37,2013-07-18 02:22:00,
2013-07-17 21:26:00,81.7,70.1,30.15,SSE,163,0.0,0.0,68,0.00,FEW,FEW,0.00,0.0,WeatherDisplay:10.37,2013-07-18 02:26:00,
2013-07-17 21:32:00,81.8,70.2,30.16,SSE,163,0.0,0.0,68,0.00,FEW,,0.00,0.0,WeatherDisplay:10.37,2013-07-18 02:32:00,
2013-07-17 21:37:00,81.6,70.0,30.16,SSE,163,0.0,0.0,68,0.00,FEW,,0.00,0.0,WeatherDisplay:10.37,2013-07-18 02:37:00,
2013-07-17 21:42:00,81.5,70.3,30.16,SSE,163,0.0,0.0,69,0.00,FEW,,0.00,0.0,WeatherDisplay:10.37,2013-07-18 02:42:00,
2013-07-17 21:47:00,81.0,70.3,30.16,SSE,163,0.0,0.0,70,0.00,FEW,,0.00,0.0,WeatherDisplay:10.37,2013-07-18 02:47:00,
2013-07-17 21:53:00,80.9,70.2,30.16,SSE,163,0.0,0.0,70,0.00,FEW,,0.00,0.0,WeatherDisplay:10.37,2013-07-18 02:53:00,
2013-07-17 21:55:00,81.0,70.7,30.16,SSE,163,0.0,0.0,71,0.00,FEW,,0.00,0.0,WeatherDisplay:10.37,2013-07-18 02:55:00,
2013-07-17 22:00:00,80.9,70.6,30.16,SSE,163,0.0,0.0,71,0.00,FEW,,0.00,0.0,WeatherDisplay:10.37,2013-07-18 03:00:00,
2013-07-17 22:06:00,80.8,70.5,30.16,SSE,163,0.0,0.0,71,0.00,FEW,,0.00,0.0,WeatherDisplay:10.37,2013-07-18 03:06:00,
2013-07-17 22:11:00,80.5,70.6,30.16,SSE,163,0.0,0.0,72,0.00,FEW,,0.00,0.0,WeatherDisplay:10.37,2013-07-18 03:11:00,
2013-07-17 22:16:00,80.3,70.9,30.16,SSE,163,0.0,0.0,73,0.00,FEW,,0.00,0.0,WeatherDisplay:10.37,2013-07-18 03:16:00,
2013-07-17 22:21:00,80.2,70.8,30.16,SSE,163,0.0,0.0,73,0.00,FEW,,0.00,0.0,WeatherDisplay:10.37,2013-07-18 03:21:00,
2013-07-17 22:26:00,79.6,70.5,30.16,SSE,163,0.0,0.0,74,0.00,FEW,FEW,0.00,0.0,WeatherDisplay:10.37,2013-07-18 03:26:00,
2013-07-17 22:32:00,79.2,70.6,30.16,SSE,163,0.0,0.0,75,0.00,FEW,,0.00,0.0,WeatherDisplay:10.37,2013-07-18 03:32:00,
2013-07-17 22:37:00,79.4,70.8,30.16,SSE,163,0.0,0.0,75,0.00,FEW,,0.00,0.0,WeatherDisplay:10.37,2013-07-18 03:37:00,
2013-07-17 22:42:00,79.4,70.8,30.16,SSE,163,0.0,0.0,75,0.00,FEW,,0.00,0.0,WeatherDisplay:10.37,2013-07-18 03:42:00,
2013-07-17 22:47:00,79.3,70.7,30.16,SSE,163,0.0,0.0,75,0.00,FEW,,0.00,0.0,WeatherDisplay:10.37,2013-07-18 03:47:00,
2013-07-17 22:53:00,79.0,70.8,30.16,SSE,163,0.0,0.0,76,0.00,FEW,,0.00,0.0,WeatherDisplay:10.37,2013-07-18 03:53:00,
2013-07-17 22:58:00,79.1,70.9,30.16,SSE,163,0.0,0.0,76,0.00,FEW,,0.00,0.0,WeatherDisplay:10.37,2013-07-18 03:58:00,
2013-07-17 23:01:00,79.2,71.0,30.16,SSE,163,0.0,0.0,76,0.00,CLR,,0.00,0.0,WeatherDisplay:10.37,2013-07-18 04:01:00,
2013-07-17 23:02:00,79.1,70.9,30.16,SSE,163,0.0,0.0,76,0.00,CLR,,0.00,0.0,WeatherDisplay:10.37,2013-07-18 04:02:00,
2013-07-17 23:05:00,78.7,70.9,30.16,SSE,163,0.0,0.0,77,0.00,CLR,,0.00,0.0,WeatherDisplay:10.37,2013-07-18 04:05:00,
2013-07-17 23:10:00,78.5,71.1,30.15,SSE,163,0.0,0.0,78,0.00,CLR,,0.00,0.0,WeatherDisplay:10.37,2013-07-18 04:10:00,
2013-07-17 23:15:00,78.4,71.0,30.16,SSE,163,0.0,0.0,78,0.00,CLR,,0.00,0.0,WeatherDisplay:10.37,2013-07-18 04:15:00,
2013-07-17 23:21:00,78.1,71.1,30.16,SSE,163,0.0,0.0,79,0.00,CLR,,0.00,0.0,WeatherDisplay:10.37,2013-07-18 04:21:00,
2013-07-17 23:26:00,78.2,71.2,30.16,SSE,163,0.0,0.0,79,0.00,CLR,,0.00,0.0,WeatherDisplay:10.37,2013-07-18 04:26:00,
2013-07-17 23:31:00,78.5,71.4,30.15,SSE,163,0.0,0.0,79,0.00,CLR,,0.00,0.0,WeatherDisplay:10.37,2013-07-18 04:31:00,
2013-07-17 23:36:00,78.3,71.2,30.16,SSE,163,0.0,0.0,79,0.00,CLR,,0.00,0.0,WeatherDisplay:10.37,2013-07-18 04:36:00,
2013-07-17 23:41:00,78.2,71.2,30.16,North,6,0.0,0.0,79,0.00,CLR,CLR,0.00,0.0,WeatherDisplay:10.37,2013-07-18 04:41:00,
2013-07-17 23:47:00,78.2,71.2,30.16,SSE,163,0.0,0.0,79,0.00,CLR,,0.00,0.0,WeatherDisplay:10.37,2013-07-18 04:47:00,
2013-07-17 23:52:00,77.9,71.2,30.16,SSE,163,0.0,0.0,80,0.00,CLR,,0.00,0.0,WeatherDisplay:10.37,2013-07-18 04:52:00,
2013-07-17 23:57:00,78.0,71.3,30.16,SSE,163,0.0,0.0,80,0.00,CLR,,0.00,0.0,WeatherDisplay:10.37,2013-07-18 04:57:00,